Location: ?????
(38.3175°N, 23.1775°E)
Time: 00:36:10
(UTC+00:00)

Daily predictions for brighter satellites

Satellite Brightness Start Highest point End
(mag) Time Altitude Azimuth Time Altitude Azimuth Time Altitude Azimuth
USA 281 4.3 01:07:30 10° NNE 01:11:10 35° N 01:11:10 35° N
NOSS 3-1 (C) 4.0 01:33:49 84° SW 01:33:49 84° SW 01:42:53 10° SSE
Cosmos 2219 Rocket 3.8 01:37:07 24° SE 01:37:07 24° SE 01:39:23 10° SE
Cosmos 2315 Rocket 4.5 01:42:01 10° N 01:46:41 51° NNW 01:46:41 51° NNW
PAYLOAD A 4.5 01:46:12 10° NNE 01:50:37 57° ENE 01:50:37 57° ENE
Meteor 1-14 Rocket 4.4 01:47:37 10° N 01:53:38 77° E 01:55:11 51° SSE
USA 215 4.2 01:49:06 10° ESE 01:55:15 45° NE 02:00:41 13° NNW
Cosmos 2298 Rocket 4.2 01:57:04 69° ENE 01:57:04 69° ENE 02:01:56 10° NNE
ATLAS 2AS CENTAUR R/B 4.4 02:05:28 18° NW 02:05:47 18° NW 02:10:36 10° N
CZ-2C R/B 4.0 02:00:43 10° N 02:04:34 39° NNW 02:04:34 39° NNW
Meteor 1-10 Rocket 4.3 02:06:35 49° SSE 02:08:06 74° E 02:13:38 10° NNE
CZ-2C R/B 2.9 02:03:37 10° N 02:07:01 47° N 02:07:01 47° N
Cosmos 2150 Rocket 3.9 02:08:56 87° N 02:08:56 87° N 02:14:09 10° NNE
ATLAS 3B R/B 2.9 02:09:56 55° WSW 02:10:23 56° WSW 02:17:50 10° S
NOAA 11 4.4 02:12:06 10° NNE 02:17:35 70° ESE 02:21:07 22° S
YAOGAN 11 4.2 02:14:39 10° SSE 02:19:09 76° ENE 02:23:37 10° N
SL-08 R/B 4.4 02:16:07 15° S 02:21:17 80° E 02:27:23 10° N
Cosmos 1484 Rocket 3.7 02:20:35 10° NNE 02:24:04 43° E 02:25:12 32° SE
Cosmos 1867 3.6 02:20:37 13° NNW 02:25:34 78° ENE 02:31:00 10° SE
Cosmos 44 Rocket 3.6 02:24:16 42° S 02:25:49 66° ESE 02:30:55 10° NE
USA 229 DEB 4.4 02:23:20 10° NNW 02:30:51 65° NE 02:38:53 10° SE
USA 229 4.4 02:23:26 10° NNW 02:30:56 65° NE 02:38:56 10° SE
Cosmos 2297 Rocket 2.6 02:26:49 18° S 02:31:02 62° ESE 02:36:36 10° NNE
BlueWalker 3 3.0 02:33:41 30° N 02:34:58 41° NE 02:38:38 10° ESE
NOSS 0 Rocket 4.4 02:29:12 10° NNW 02:35:25 64° ENE 02:41:35 10° SE
H-2A R/B 4.3 02:31:54 10° NE 02:36:27 27° E 02:40:55 10° SSE
Delta 2 Rocket 4.1 02:37:46 46° SSW 02:38:15 47° SSW 02:43:12 10° ESE
Cosmos 1536 2.6 02:38:13 10° N 02:42:06 85° W 02:45:58 10° S
Lacrosse 5 rocket 3.7 02:44:00 11° NNW 02:44:00 11° NNW 02:44:57 10° N
Cosmos 1151 Rocket 2.9 02:41:44 29° SSW 02:43:57 81° W 02:48:21 10° N
Cosmos 2237 Rocket 3.3 02:39:26 10° N 02:44:52 44° ENE 02:50:14 10° SE
NOSS 3-1 (A) 4.2 02:39:35 10° NW 02:47:17 57° WSW 02:56:08 10° SSE
Cosmos 1328 Rocket 4.3 02:47:20 10° S 02:51:38 54° E 02:55:56 10° NNE
Okean 1 3.0 02:49:46 24° S 02:52:01 82° W 02:55:53 10° N
Cosmos 1666 Rocket 4.3 02:49:42 10° N 02:54:00 54° E 02:58:13 10° SSE
Envisat 3.5 02:49:47 10° N 02:54:25 36° WNW 02:55:24 33° W
Meteor 2-20 4.4 02:49:22 10° N 02:55:35 87° E 03:01:43 10° S
Cosmos 2322 4.0 02:52:08 10° NW 02:57:26 41° WSW 03:02:40 10° S
COSMOS 2428 2.9 02:59:39 10° NW 03:05:04 46° WSW 03:10:28 10° S
Cosmos 1745 Rocket 4.0 03:02:13 10° SSW 03:08:29 69° W 03:14:51 10° N
Cosmos 1743 Rocket 4.5 03:10:12 10° NNW 03:13:48 26° W 03:17:25 10° SW
BREEZE-M DEB (TANK) 4.4 03:05:36 19° WSW 03:14:16 57° NW 03:18:19 10° NE
IRS-1C 4.0 03:09:12 10° NNE 03:14:32 81° WNW 03:19:51 10° SSW
Meteor 1-27 Rocket 4.0 03:10:19 10° SSW 03:15:38 45° WNW 03:21:06 10° N
Helios 1A 2.8 03:11:42 10° S 03:15:47 74° WSW 03:19:52 10° NNW
CZ-2D R/B 3.9 03:12:02 10° NNE 03:16:22 67° E 03:20:41 10° S
Cosmos 1805 Rocket 4.5 03:12:48 10° NNW 03:16:24 26° W 03:19:59 10° SW
GP-B 4.2 03:16:52 22° W 03:17:13 23° W 03:20:43 10° NNW
Cosmos 2219 Rocket 3.7 03:19:06 15° WSW 03:19:06 15° WSW 03:20:54 10° SW
Cosmos 2227 Rocket 2.2 03:11:58 10° SSW 03:17:39 86° ESE 03:23:21 10° NNE
Cosmos 2263 Rocket 4.4 03:18:08 10° SSE 03:22:47 27° ESE 03:27:27 10° NE
H-2A R/B 2.6 03:19:33 10° N 03:22:56 49° WNW 03:26:16 10° SSW
Cosmos 1633 Rocket 3.0 03:19:14 10° N 03:23:39 83° W 03:28:03 10° S
Meteor 1-19 Rocket 4.4 03:20:35 10° SSW 03:25:58 47° WNW 03:31:16 10° N
Cosmos 1726 1.9 03:25:47 10° N 03:29:13 84° E 03:32:38 10° S
Sich 1 4.2 03:26:03 10° NW 03:29:15 20° W 03:32:28 10° SW
Cosmos 1733 3.2 03:30:59 10° N 03:34:41 77° E 03:38:20 10° S
SL-08 R/B 3.9 03:31:22 10° SSE 03:36:04 65° ENE 03:40:53 10° N
USA 215 3.4 03:31:45 10° SSE 03:38:07 54° SW 03:44:32 10° NW
SKYMED 2 3.9 03:34:21 10° SSE 03:38:39 70° ENE 03:42:59 10° N
Meteor 2-4 Rocket 3.8 03:34:36 10° SSW 03:40:31 78° W 03:46:24 10° N
ERS-2 2.0 03:39:19 10° N 03:42:21 45° WNW 03:45:22 10° SSW
ARIANE 5 R/B 2.8 03:38:56 10° N 03:43:41 45° WNW 03:48:24 10° SW
PSLV R/B 4.1 03:40:42 10° NNE 03:44:48 60° E 03:48:52 10° S
Meteor 1-18 Rocket 4.3 03:39:44 10° SSW 03:45:37 75° W 03:51:27 10° N
IRS-P3 4.4 03:43:33 10° N 03:48:39 48° WNW 03:53:44 10° SW
Cosmos 1980 3.9 03:45:08 10° NW 03:50:32 48° WSW 03:55:56 10° S
ATLAS CENTAUR R/B 3.6 03:48:39 10° N 03:51:29 21° NE 03:54:18 10° ESE
Cosmos 2181 Rocket 4.2 03:45:26 10° N 03:51:36 76° E 03:57:42 10° SSE
Cosmos 1805 3.2 03:50:47 10° N 03:54:34 89° WNW 03:58:20 10° S
Cosmos 1470 Rocket 3.7 03:55:00 10° NNW 03:59:22 54° W 04:03:42 10° S
Cosmos 1269 Rocket 4.4 03:56:27 10° NNW 04:01:26 43° WSW 04:06:22 10° S
